Weather in Amnat Charoen

Thailand     15°48′34″N   104°27′30″E
В апреле 2022 года жителям России запретили посещать сайт meteo.paraplan.net по решению Генеральной прокуратуры. Аудитория сайта уменьшилась в 10 раз. Владельцы сайта не видят смысла в поддержке погодного сервера в таких условиях. Сайт будет закрыт в октябре.
temp.,
°C
wind,
m/s
gust,
m/s
humid.,
%
clouds,
%
prec.,
mm/h
press.,
hPa
HPBL,
m
4 october, tue
tue401:00+23ne410927 3.3 1010314
04:00+22ne3894100 0.5 1010266
07:00+22e2296100 7.4 1013132
10:00+26ene228399 2.5 1013552
13:00+30nne336985 2.5 10101017
16:00+30ne346780 0.0 10081207
19:00+27n227994 0.0 100920
22:00+25ene368249 0.1 1011133
5 october, wed
wed501:00+24nne3108665 0.3 1010369
04:00+23ne310925 0.0 1010312
07:00+24ne3108859 0.4 1012349
10:00+29ene447239 0.4 1013779
13:00+31ene336263 0.5 10101357
16:00+32ne3362100 0.0 10071356
19:00+28nne1174100 0.4 100911
22:00+25ne41089100 4.1 1011234
6 october, thu
thu601:00+23ene3893100 6.7 1011232
04:00+23ene359799 3.9 1010152
07:00+24ese2493100 5.4 1012166
10:00+28e2375100 0.0 1013680
13:00+28se3277100 0.1 1010369
16:00+29ne126947 0.3 1008745
19:00+25ne358898 3.3 101186
22:00+25ene238890 1.1 101257
7 october, fri
fri701:00+24ne389064 1.1 1011250
04:00+23ne379292 0.0 1011235
07:00+23ene469398 1.4 1012252
10:00+28e337697 0.0 1013790
13:00+29ene337330 0.0 1010767
16:00+30e2366100 0.0 10081150
19:00+27s007764 0.1 100911
22:00+25ne348331 0.2 101266
8 october, sat
sat801:00+24n3390100 1.3 101167
04:00+22ne269264 0.0 1010174
07:00+23ne359132 0.6 1012239
10:00+28e237436 0.0 1013800
13:00+31ene226459 0.8 10091143
16:00+31ene236529 1.5 10081131
19:00+27ne2381100 4.3 100930
22:00+25w1191100 2.6 101234